If you wish to contribute or participate in the discussions about articles you are invited to join SKYbrary as a registered user

 Actions

Rancagua de La Independencia Airport

From SKYbrary Wiki

SCRG
Airport
ICAO: SCRG – IATA: QRC
Summary
Name Rancagua de La Independencia Airport
Region South America and Caribbean
Territory Chile CL.gif
Location Rancagua, Libertador General Bernardo O'Higgins
Serving Rancagua
Elevation 440.741 m
1,446 ft
1,446 ft440.741 m
Type medium airport
Coordinates 34° 10' 25.30" S, 70° 46' 32.50" W
Runways
Designator Length Width Surface ROPS
3/21 1650 m5,413.386 ft
23 m75.459 ft
ASP /


METAR
Observation SCRG 252200Z 20007KT CAVOK 29/09 Q1015
Station DE LA INDEPENDEN
Date/Time 25 February 2020 22:00:00
Wind direction 200°
Wind speed 07 kts
Lowest cloud amount clouds and visibility OK
Temperature 29°C
Dew point 9°C
Humidity 28%
QNH 1015 hPa
Weather condition n/a

Civil/military airport located in Rancagua, Libertador General Bernado O'Higgins, Chile.

Climatology

Temperate mediterranean climate (Köppen climate classification Csb)

Maps

Terrain

Loading map...

Airport Layout

Loading map...


Accidents & Serious Incidents at or in vicinity of SCRG

None on SKYbrary